Voltar ao catálogo

STARLINK-3688

AtivoComunicaçõesVLEO
NORAD 52310·PAYLOAD·🇺🇸 United States

Lançado Apr 21, 2022 de Cape Canaveral Space Force Station

Loading…

Próximas Passagens (próximas 24 horas)

TLE

AtualizadoSource: CelesTrak SupGP

Época: Sep 15, 2026, 02:14 UTC

1 52310C 22041BB  26258.09354167  .00031808  00000+0  10230-2 0  2583
2 52310  53.1584 304.9425 0001241  93.2441 359.8117 15.31682769    10

Acompanhe STARLINK-3688 em tempo real com AllMySat

Download on the App Store